Time,TemperatureF,DewpointF,PressureIn,WindDirection,WindDirectionDegrees,WindSpeedMPH,WindSpeedGustMPH,Humidity,HourlyPrecipIn,Conditions,Clouds,dailyrainin,SoftwareType,DateUTC
2013-06-03 00:00:00,72.0,42.1,29.69,SSW,201,0.0,0.0,34,0.00,,---,0.00,VWS V13.01,2013-06-03 07:00:00,
2013-06-03 00:30:00,71.3,40.0,29.69,WNW,292,0.0,0.0,32,0.00,,---,0.00,VWS V13.01,2013-06-03 07:30:00,
2013-06-03 01:00:00,71.2,35.5,29.68,WSW,254,0.0,0.0,27,0.00,,---,0.00,VWS V13.01,2013-06-03 08:00:00,
2013-06-03 01:30:00,69.8,36.1,29.67,WSW,244,0.0,0.0,29,0.00,,---,0.00,VWS V13.01,2013-06-03 08:30:00,
2013-06-03 02:00:00,68.9,40.1,29.67,West,273,0.0,0.0,35,0.00,,---,0.00,VWS V13.01,2013-06-03 09:00:00,
2013-06-03 02:30:00,68.0,41.5,29.67,West,263,0.0,0.0,38,0.00,,---,0.00,VWS V13.01,2013-06-03 09:30:00,
2013-06-03 03:00:00,67.0,40.6,29.66,SW,233,0.0,0.0,38,0.00,,---,0.00,VWS V13.01,2013-06-03 10:00:00,
2013-06-03 03:30:00,65.4,40.5,29.67,SW,226,0.0,0.0,40,0.00,,---,0.00,VWS V13.01,2013-06-03 10:30:00,
2013-06-03 04:00:00,64.8,39.3,29.67,South,175,0.0,0.0,39,0.00,,---,0.00,VWS V13.01,2013-06-03 11:00:00,
2013-06-03 04:30:00,64.3,36.8,29.67,South,169,2.0,10.0,36,0.00,,---,0.00,VWS V13.01,2013-06-03 11:30:00,
2013-06-03 05:00:00,63.6,38.9,29.67,South,182,1.0,9.0,40,0.00,,---,0.00,VWS V13.01,2013-06-03 12:00:00,
2013-06-03 05:30:00,62.6,39.2,29.67,SSW,193,0.0,3.0,42,0.00,,---,0.00,VWS V13.01,2013-06-03 12:30:00,
2013-06-03 06:00:00,61.2,39.7,29.69,South,186,0.0,3.0,45,0.00,,---,0.00,VWS V13.01,2013-06-03 13:00:00,
2013-06-03 06:30:00,61.4,40.5,29.70,South,179,0.0,5.0,46,0.00,,---,0.00,VWS V13.01,2013-06-03 13:30:00,
2013-06-03 07:00:00,64.2,40.0,29.71,SSW,195,0.0,0.0,41,0.00,,---,0.00,VWS V13.01,2013-06-03 14:00:00,
2013-06-03 07:30:00,67.5,41.7,29.73,WNW,297,0.0,0.0,39,0.00,,---,0.00,VWS V13.01,2013-06-03 14:30:00,
2013-06-03 08:00:00,71.1,41.3,29.71,NW,304,0.0,0.0,34,0.00,,---,0.00,VWS V13.01,2013-06-03 15:00:00,
2013-06-03 08:30:00,74.4,42.6,29.71,NW,322,0.0,0.0,32,0.00,,---,0.00,VWS V13.01,2013-06-03 15:30:00,
2013-06-03 09:00:00,77.6,41.0,29.71,SSE,155,0.0,19.0,27,0.00,,---,0.00,VWS V13.01,2013-06-03 16:00:00,
2013-06-03 09:30:00,79.2,40.4,29.72,SW,226,0.0,0.0,25,0.00,,---,0.00,VWS V13.01,2013-06-03 16:30:00,
2013-06-03 10:00:00,80.7,40.6,29.73,South,171,0.0,0.0,24,0.00,,---,0.00,VWS V13.01,2013-06-03 17:00:00,
2013-06-03 10:30:00,83.3,39.3,29.74,SW,218,0.0,0.0,21,0.00,,---,0.00,VWS V13.01,2013-06-03 17:30:00,
2013-06-03 11:00:00,84.9,40.7,29.73,SSE,155,0.0,0.0,21,0.00,,---,0.00,VWS V13.01,2013-06-03 18:00:00,
2013-06-03 11:30:00,86.3,39.2,29.73,SE,126,0.0,0.0,19,0.00,,---,0.00,VWS V13.01,2013-06-03 18:30:00,
2013-06-03 12:00:00,87.5,40.2,29.72,SSE,164,0.0,0.0,19,0.00,,---,0.00,VWS V13.01,2013-06-03 19:00:00,
2013-06-03 12:30:00,88.4,38.1,29.73,South,185,0.0,0.0,17,0.00,,---,0.00,VWS V13.01,2013-06-03 19:30:00,
2013-06-03 13:00:00,89.2,38.7,29.72,SSE,147,0.0,0.0,17,0.00,,---,0.00,VWS V13.01,2013-06-03 20:00:00,
2013-06-03 13:30:00,89.4,35.7,29.73,South,179,0.0,0.0,15,0.00,,---,0.00,VWS V13.01,2013-06-03 20:30:00,
2013-06-03 14:00:00,88.9,35.3,29.71,South,171,0.0,0.0,15,0.00,,---,0.00,VWS V13.01,2013-06-03 21:00:00,
2013-06-03 14:30:00,88.2,39.4,29.72,South,184,0.0,0.0,18,0.00,,---,0.00,VWS V13.01,2013-06-03 21:30:00,
2013-06-03 15:00:00,88.1,40.7,29.72,South,173,0.0,0.0,19,0.00,,---,0.00,VWS V13.01,2013-06-03 22:00:00,
2013-06-03 15:30:00,88.5,41.0,29.71,SSW,202,0.0,0.0,19,0.00,,---,0.00,VWS V13.01,2013-06-03 22:30:00,
2013-06-03 16:00:00,88.0,36.2,29.71,SE,142,0.0,0.0,16,0.00,,---,0.00,VWS V13.01,2013-06-03 23:00:00,
2013-06-03 16:30:00,87.6,40.3,29.71,SSW,192,0.0,0.0,19,0.00,,---,0.00,VWS V13.01,2013-06-03 23:30:00,
2013-06-03 17:00:00,86.4,37.9,29.71,South,178,0.0,0.0,18,0.00,,---,0.00,VWS V13.01,2013-06-04 00:00:00,
2013-06-03 17:30:00,86.1,39.1,29.70,South,171,0.0,0.0,19,0.00,,---,0.00,VWS V13.01,2013-06-04 00:30:00,
2013-06-03 18:00:00,85.1,38.2,29.71,South,171,0.0,0.0,19,0.00,,---,0.00,VWS V13.01,2013-06-04 01:00:00,
2013-06-03 18:30:00,83.0,36.5,29.71,West,268,0.0,0.0,19,0.00,,---,0.00,VWS V13.01,2013-06-04 01:30:00,
2013-06-03 19:00:00,81.3,37.6,29.72,SW,222,0.0,0.0,21,0.00,,---,0.00,VWS V13.01,2013-06-04 02:00:00,
2013-06-03 19:30:00,79.0,42.2,29.74,WSW,256,0.0,0.0,27,0.00,,---,0.00,VWS V13.01,2013-06-04 02:30:00,
2013-06-03 20:00:00,76.6,40.2,29.74,SSW,210,0.0,0.0,27,0.00,,---,0.00,VWS V13.01,2013-06-04 03:00:00,
2013-06-03 20:30:00,74.7,38.5,29.73,SSW,198,0.0,0.0,27,0.00,,---,0.00,VWS V13.01,2013-06-04 03:30:00,
2013-06-03 21:00:00,73.5,37.5,29.74,WSW,240,0.0,0.0,27,0.00,,---,0.00,VWS V13.01,2013-06-04 04:00:00,
2013-06-03 21:30:00,73.1,30.9,29.75,WNW,284,0.0,0.0,21,0.00,,---,0.00,VWS V13.01,2013-06-04 04:30:00,
2013-06-03 22:00:00,72.3,31.4,29.75,NNW,334,0.0,0.0,22,0.00,,---,0.00,VWS V13.01,2013-06-04 05:00:00,
2013-06-03 22:30:00,71.0,31.4,29.74,WNW,284,0.0,0.0,23,0.00,,---,0.00,VWS V13.01,2013-06-04 05:30:00,
2013-06-03 23:00:00,70.1,31.7,29.76,NW,323,0.0,0.0,24,0.00,,---,0.00,VWS V13.01,2013-06-04 06:00:00,
2013-06-03 23:30:00,69.7,33.3,29.75,West,265,0.0,0.0,26,0.00,,---,0.00,VWS V13.01,2013-06-04 06:30:00,